| time (UTC) | temp C | wind direction | speed KPH | gust KPH | rain 1hr cm | rain 24hr cm | rain mn cm | humidity % | barometer mb |
| 20260505181550 | 27 | 159 | 3.2 | 6.4 | 0.00 | 0.00 | 0.00 | 73 | 1006.7 |
| 20260505181038 | 27 | 167 | 3.2 | 6.4 | 0.00 | 0.00 | 0.00 | 74 | 1006.8 |
| 20260505180538 | 27 | 227 | 1.6 | 4.8 | 0.00 | 0.00 | 0.00 | 74 | 1006.8 |
| 20260505180055 | 27 | 211 | 0.0 | 6.4 | 0.00 | 0.00 | 0.00 | 75 | 1006.8 |
| 20260505175538 | 27 | 198 | 1.6 | 6.4 | 0.00 | 0.00 | 0.00 | 74 | 1006.9 |
| 20260505175039 | 27 | 165 | 0.0 | 4.8 | 0.00 | 0.00 | 0.00 | 74 | 1006.9 |
| 20260505174552 | 27 | 211 | 1.6 | 8.0 | 0.00 | 0.00 | 0.00 | 74 | 1007.0 |
| 20260505174037 | 27 | 226 | 1.6 | 8.0 | 0.00 | 0.00 | 0.00 | 74 | 1007.2 |
| 20260505173538 | 27 | 253 | 0.0 | 4.8 | 0.00 | 0.00 | 0.00 | 75 | 1007.1 |
| 20260505173047 | 27 | 166 | 3.2 | 4.8 | 0.00 | 0.00 | 0.00 | 74 | 1007.0 |
| 20260505172538 | 27 | 215 | 1.6 | 4.8 | 0.00 | 0.00 | 0.00 | 74 | 1006.9 |
| 20260505172039 | 27 | 0 | 0.0 | 8.0 | 0.00 | 0.00 | 0.00 | 75 | 1006.9 |
| 20260505171551 | 27 | 174 | 1.6 | 8.0 | 0.00 | 0.00 | 0.00 | 74 | 1007.0 |
| 20260505171039 | 27 | 167 | 1.6 | 11.3 | 0.00 | 0.00 | 0.00 | 76 | 1006.9 |
| 20260505170538 | 26 | 229 | 1.6 | 11.3 | 0.00 | 0.00 | 0.00 | 75 | 1006.9 |
| 20260505170050 | 26 | 205 | 3.2 | 6.4 | 0.00 | 0.00 | 0.00 | 75 | 1006.8 |
| 20260505165538 | 26 | 159 | 1.6 | 9.7 | 0.00 | 0.00 | 0.00 | 76 | 1006.8 |
| 20260505165038 | 26 | 197 | 3.2 | 9.7 | 0.00 | 0.00 | 0.00 | 75 | 1006.6 |
| 20260505164550 | 26 | 213 | 3.2 | 8.0 | 0.00 | 0.00 | 0.00 | 74 | 1006.7 |
| 20260505164039 | 26 | 243 | 1.6 | 6.4 | 0.00 | 0.00 | 0.00 | 76 | 1006.7 |
| 20260505163538 | 26 | 221 | 1.6 | 8.0 | 0.00 | 0.00 | 0.00 | 77 | 1006.8 |
| 20260505163052 | 26 | 235 | 3.2 | 9.7 | 0.00 | 0.00 | 0.00 | 76 | 1006.8 |
| 20260505162539 | 26 | 156 | 3.2 | 9.7 | 0.00 | 0.00 | 0.00 | 76 | 1007.0 |
| 20260505162039 | 25 | 205 | 3.2 | 9.7 | 0.00 | 0.00 | 0.00 | 77 | 1006.9 |
| 20260505161548 | 25 | 158 | 1.6 | 8.0 | 0.00 | 0.00 | 0.00 | 78 | 1007.0 |
| 20260505161039 | 25 | 264 | 3.2 | 9.7 | 0.00 | 0.00 | 0.00 | 78 | 1007.2 |
| 20260505160539 | 25 | 198 | 3.2 | 9.7 | 0.00 | 0.00 | 0.00 | 78 | 1007.1 |
| 20260505153056 | 25 | 196 | 3.2 | 9.7 | 0.00 | 0.00 | 0.00 | 78 | 1006.9 |
| 20260505152538 | 25 | 169 | 1.6 | 6.4 | 0.00 | 0.00 | 0.00 | 79 | 1006.8 |
| 20260505152037 | 25 | 165 | 1.6 | 6.4 | 0.00 | 0.00 | 0.00 | 79 | 1007.0 |
| 20260505151554 | 24 | 224 | 1.6 | 9.7 | 0.00 | 0.00 | 0.00 | 81 | 1007.0 |
| 20260505151039 | 24 | 206 | 3.2 | 9.7 | 0.00 | 0.00 | 0.00 | 80 | 1007.0 |
| 20260505150537 | 24 | 219 | 1.6 | 8.0 | 0.00 | 0.00 | 0.00 | 80 | 1007.1 |
| 20260505140537 | 22 | 219 | 1.6 | 4.8 | 0.00 | 0.00 | 0.00 | 85 | 1006.8 |
| 20260505125039 | 21 | 0 | 1.6 | 3.2 | 0.00 | 0.00 | 0.00 | 87 | 1006.4 |
| 20260505124545 | 21 | 160 | 0.0 | 3.2 | 0.00 | 0.00 | 0.00 | 87 | 1006.5 |
| 20260505124038 | 21 | 171 | 1.6 | 3.2 | 0.00 | 0.00 | 0.00 | 87 | 1006.5 |
| 20260505123541 | 21 | 186 | 1.6 | 3.2 | 0.00 | 0.00 | 0.00 | 87 | 1006.4 |
| 20260505123112 | 21 | 165 | 0.0 | 3.2 | 0.00 | 0.00 | 0.00 | 87 | 1006.4 |
| 20260505122539 | 21 | 210 | 0.0 | 3.2 | 0.00 | 0.00 | 0.00 | 87 | 1006.2 |
| 20260505122037 | 21 | 194 | 0.0 | 3.2 | 0.00 | 0.00 | 0.00 | 87 | 1006.1 |
| 20260505121551 | 21 | 171 | 0.0 | 3.2 | 0.00 | 0.00 | 0.00 | 87 | 1006.0 |
| 20260505121040 | 21 | 210 | 0.0 | 3.2 | 0.00 | 0.00 | 0.00 | 87 | 1006.0 |
| 20260505120536 | 21 | 205 | 0.0 | 3.2 | 0.00 | 0.00 | 0.00 | 87 | 1006.1 |
| 20260505120056 | 21 | 172 | 0.0 | 3.2 | 0.00 | 0.00 | 0.00 | 87 | 1006.1 |
| 20260505115538 | 21 | 153 | 0.0 | 3.2 | 0.00 | 0.00 | 0.00 | 87 | 1006.0 |
| 20260505115038 | 21 | 221 | 0.0 | 3.2 | 0.00 | 0.00 | 0.00 | 87 | 1006.0 |
| 20260505114550 | 21 | 148 | 0.0 | 3.2 | 0.00 | 0.00 | 0.00 | 87 | 1005.9 |
| 20260505114038 | 21 | 217 | 0.0 | 3.2 | 0.00 | 0.00 | 0.00 | 87 | 1006.0 |
| 20260505113542 | 21 | 0 | 0.0 | 4.8 | 0.00 | 0.00 | 0.00 | 87 | 1006.0 |
| 20260505113051 | 21 | 204 | 0.0 | 4.8 | 0.00 | 0.00 | 0.00 | 87 | 1006.0 |
| 20260505112536 | 21 | 188 | 0.0 | 4.8 | 0.00 | 0.00 | 0.00 | 87 | 1005.9 |
| 20260505112037 | 21 | 212 | 0.0 | 4.8 | 0.00 | 0.00 | 0.00 | 87 | 1005.9 |
| 20260505111547 | 21 | 217 | 0.0 | 6.4 | 0.00 | 0.00 | 0.00 | 87 | 1005.8 |
| 20260505111036 | 21 | 181 | 0.0 | 6.4 | 0.00 | 0.00 | 0.00 | 87 | 1005.7 |
| 20260505110539 | 21 | 141 | 1.6 | 6.4 | 0.00 | 0.00 | 0.00 | 87 | 1005.7 |
| 20260505102039 | 21 | 207 | 1.6 | 6.4 | 0.00 | 0.00 | 0.00 | 86 | 1006.0 |
| 20260505101548 | 21 | 210 | 0.0 | 3.2 | 0.00 | 0.00 | 0.00 | 86 | 1006.0 |
| 20260505101039 | 21 | 192 | 1.6 | 3.2 | 0.00 | 0.00 | 0.00 | 86 | 1005.9 |
| 20260505100541 | 21 | 183 | 0.0 | 3.2 | 0.00 | 0.00 | 0.00 | 86 | 1005.9 |
| 20260505100048 | 21 | 198 | 0.0 | 6.4 | 0.00 | 0.00 | 0.00 | 86 | 1005.9 |
| 20260505095538 | 21 | 172 | 1.6 | 6.4 | 0.00 | 0.00 | 0.00 | 86 | 1006.1 |
| 20260505095038 | 21 | 192 | 1.6 | 6.4 | 0.00 | 0.00 | 0.00 | 86 | 1006.1 |
| 20260505094553 | 21 | 196 | 1.6 | 6.4 | 0.00 | 0.00 | 0.00 | 86 | 1006.1 |
| 20260505094037 | 21 | 0 | 1.6 | 6.4 | 0.00 | 0.00 | 0.00 | 86 | 1006.2 |
| 20260505093539 | 21 | 223 | 1.6 | 4.8 | 0.00 | 0.00 | 0.00 | 86 | 1006.2 |
| 20260505093055 | 21 | 240 | 0.0 | 6.4 | 0.00 | 0.00 | 0.00 | 86 | 1006.3 |
| 20260505092537 | 21 | 211 | 0.0 | 6.4 | 0.00 | 0.00 | 0.00 | 86 | 1006.4 |
| 20260505092038 | 21 | 180 | 1.6 | 4.8 | 0.00 | 0.00 | 0.00 | 86 | 1006.2 |
| 20260505091613 | 21 | 291 | 0.0 | 8.0 | 0.00 | 0.00 | 0.00 | 86 | 1006.3 |
| 20260505091037 | 21 | 153 | 0.0 | 8.0 | 0.00 | 0.00 | 0.00 | 86 | 1006.3 |
| 20260505090537 | 21 | 205 | 0.0 | 6.4 | 0.00 | 0.00 | 0.00 | 86 | 1006.2 |
| 20260505090109 | 21 | 202 | 1.6 | 6.4 | 0.00 | 0.00 | 0.00 | 86 | 1006.1 |
| 20260505085537 | 21 | 149 | 1.6 | 6.4 | 0.00 | 0.00 | 0.00 | 86 | 1006.1 |
| 20260505085038 | 21 | 207 | 1.6 | 8.0 | 0.00 | 0.00 | 0.00 | 86 | 1006.1 |
| 20260505084605 | 21 | 200 | 3.2 | 8.0 | 0.00 | 0.00 | 0.00 | 86 | 1006.2 |
| 20260505084037 | 21 | 188 | 1.6 | 8.0 | 0.00 | 0.00 | 0.00 | 86 | 1006.1 |
| 20260505083537 | 21 | 186 | 1.6 | 4.8 | 0.00 | 0.00 | 0.00 | 86 | 1006.1 |
| 20260505083104 | 21 | 174 | 1.6 | 4.8 | 0.00 | 0.00 | 0.00 | 86 | 1006.2 |
| 20260505082537 | 21 | 175 | 1.6 | 6.4 | 0.00 | 0.00 | 0.00 | 86 | 1006.1 |
| 20260505082037 | 21 | 131 | 1.6 | 6.4 | 0.00 | 0.00 | 0.00 | 86 | 1006.2 |
| 20260505081557 | 21 | 203 | 1.6 | 4.8 | 0.00 | 0.00 | 0.00 | 86 | 1006.3 |
| 20260505081038 | 21 | 179 | 1.6 | 4.8 | 0.00 | 0.00 | 0.00 | 87 | 1006.5 |
| 20260505080541 | 21 | 157 | 0.0 | 4.8 | 0.00 | 0.00 | 0.00 | 86 | 1006.6 |
| 20260505080058 | 21 | 184 | 0.0 | 4.8 | 0.00 | 0.00 | 0.00 | 86 | 1006.6 |
| 20260505075538 | 21 | 212 | 1.6 | 4.8 | 0.00 | 0.00 | 0.00 | 86 | 1006.5 |
| 20260505075038 | 21 | 196 | 0.0 | 9.7 | 0.00 | 0.00 | 0.00 | 86 | 1006.6 |
| 20260505074552 | 21 | 166 | 0.0 | 9.7 | 0.00 | 0.00 | 0.00 | 86 | 1006.7 |
| 20260505074040 | 21 | 227 | 0.0 | 4.8 | 0.00 | 0.00 | 0.00 | 86 | 1006.7 |
| 20260505073539 | 21 | 193 | 1.6 | 4.8 | 0.00 | 0.00 | 0.00 | 86 | 1006.9 |
| 20260505073054 | 21 | 0 | 1.6 | 4.8 | 0.00 | 0.00 | 0.00 | 86 | 1006.9 |
| 20260505072537 | 21 | 156 | 0.0 | 4.8 | 0.00 | 0.00 | 0.00 | 86 | 1007.1 |
| 20260505072037 | 21 | 191 | 0.0 | 6.4 | 0.00 | 0.00 | 0.00 | 85 | 1007.2 |
| 20260505071552 | 21 | 210 | 1.6 | 6.4 | 0.00 | 0.00 | 0.00 | 85 | 1007.2 |
| 20260505071040 | 21 | 204 | 3.2 | 6.4 | 0.00 | 0.00 | 0.00 | 85 | 1007.3 |
| 20260505070539 | 21 | 199 | 1.6 | 4.8 | 0.00 | 0.00 | 0.00 | 85 | 1007.3 |
| 20260505070053 | 21 | 137 | 1.6 | 4.8 | 0.00 | 0.00 | 0.00 | 85 | 1007.4 |
| 20260505065539 | 21 | 218 | 1.6 | 4.8 | 0.00 | 0.00 | 0.00 | 85 | 1007.4 |
| 20260505065040 | 21 | 211 | 1.6 | 4.8 | 0.00 | 0.00 | 0.00 | 85 | 1007.5 |
| 20260505064551 | 21 | 215 | 1.6 | 4.8 | 0.00 | 0.00 | 0.00 | 85 | 1007.6 |
| 20260505064038 | 21 | 200 | 0.0 | 4.8 | 0.00 | 0.00 | 0.00 | 84 | 1007.7 |
| 20260505063538 | 21 | 120 | 0.0 | 4.8 | 0.00 | 0.00 | 0.00 | 84 | 1007.7 |
| 20260505063053 | 21 | 232 | 1.6 | 4.8 | 0.00 | 0.00 | 0.00 | 84 | 1007.7 |
| 20260505062540 | 21 | 222 | 1.6 | 4.8 | 0.00 | 0.00 | 0.00 | 84 | 1007.7 |
| 20260505062038 | 21 | 189 | 1.6 | 4.8 | 0.00 | 0.00 | 0.00 | 83 | 1007.7 |
| 20260505061555 | 21 | 201 | 0.0 | 3.2 | 0.00 | 0.00 | 0.00 | 83 | 1007.7 |
| 20260505061038 | 21 | 158 | 0.0 | 4.8 | 0.00 | 0.00 | 0.00 | 83 | 1007.7 |
| 20260505060538 | 21 | 154 | 1.6 | 4.8 | 0.00 | 0.00 | 0.00 | 83 | 1007.6 |
| 20260505055538 | 21 | 207 | 1.6 | 6.4 | 0.00 | 0.00 | 0.00 | 82 | 1007.6 |
| 20260505055037 | 21 | 188 | 1.6 | 4.8 | 0.00 | 0.00 | 0.00 | 82 | 1007.8 |
| 20260505054556 | 21 | 200 | 1.6 | 4.8 | 0.00 | 0.00 | 0.00 | 82 | 1007.8 |
| 20260505054040 | 22 | 231 | 1.6 | 3.2 | 0.00 | 0.00 | 0.00 | 82 | 1007.8 |
| 20260505053540 | 22 | 185 | 0.0 | 3.2 | 0.00 | 0.00 | 0.00 | 81 | 1007.9 |
| 20260505053058 | 22 | 195 | 0.0 | 4.8 | 0.00 | 0.00 | 0.00 | 81 | 1008.0 |
| 20260505052539 | 22 | 215 | 1.6 | 4.8 | 0.00 | 0.00 | 0.00 | 81 | 1008.1 |
| 20260505052038 | 22 | 75 | 0.0 | 3.2 | 0.00 | 0.00 | 0.00 | 81 | 1008.1 |
| 20260505051550 | 22 | 176 | 0.0 | 3.2 | 0.00 | 0.00 | 0.00 | 80 | 1008.0 |
| 20260505051038 | 22 | 189 | 1.6 | 6.4 | 0.00 | 0.00 | 0.00 | 80 | 1008.0 |
| 20260505050541 | 22 | 0 | 0.0 | 6.4 | 0.00 | 0.00 | 0.00 | 80 | 1008.1 |
| 20260505041554 | 22 | 112 | 0.0 | 4.8 | 0.00 | 0.00 | 0.00 | 79 | 1008.0 |
| 20260505041041 | 22 | 201 | 0.0 | 4.8 | 0.00 | 0.00 | 0.00 | 79 | 1008.1 |
| 20260505040541 | 22 | 210 | 0.0 | 3.2 | 0.00 | 0.00 | 0.00 | 79 | 1008.1 |
| 20260505040053 | 22 | 0 | 0.0 | 1.6 | 0.00 | 0.00 | 0.00 | 79 | 1008.2 |
| 20260505035538 | 22 | 176 | 0.0 | 1.6 | 0.00 | 0.00 | 0.00 | 79 | 1008.2 |
| 20260505035042 | 22 | 0 | 0.0 | 1.6 | 0.00 | 0.00 | 0.00 | 79 | 1008.0 |
| 20260505034551 | 22 | 187 | 0.0 | 3.2 | 0.00 | 0.00 | 0.00 | 78 | 1008.1 |
| 20260505034040 | 22 | 155 | 0.0 | 3.2 | 0.00 | 0.00 | 0.00 | 78 | 1008.0 |
| 20260505033540 | 22 | 149 | 0.0 | 3.2 | 0.00 | 0.00 | 0.00 | 78 | 1008.0 |
| 20260505033049 | 22 | 0 | 0.0 | 3.2 | 0.00 | 0.00 | 0.00 | 78 | 1007.9 |
| 20260505032539 | 22 | 162 | 0.0 | 3.2 | 0.00 | 0.00 | 0.00 | 78 | 1008.1 |
| 20260505032039 | 22 | 174 | 0.0 | 3.2 | 0.00 | 0.00 | 0.00 | 78 | 1008.3 |
| 20260505031551 | 22 | 158 | 0.0 | 3.2 | 0.00 | 0.00 | 0.00 | 77 | 1008.2 |
| 20260505031039 | 22 | 155 | 0.0 | 3.2 | 0.00 | 0.00 | 0.00 | 77 | 1008.3 |
| 20260505030537 | 22 | 157 | 0.0 | 3.2 | 0.00 | 0.00 | 0.00 | 77 | 1008.3 |
| 20260505030119 | 22 | 207 | 0.0 | 1.6 | 0.00 | 0.00 | 0.00 | 77 | 1008.2 |
| 20260505025537 | 22 | 214 | 0.0 | 1.6 | 0.00 | 0.00 | 0.00 | 76 | 1008.2 |
| 20260505025040 | 22 | 206 | 0.0 | 3.2 | 0.00 | 0.00 | 0.00 | 76 | 1008.0 |
| 20260505024550 | 22 | 198 | 0.0 | 4.8 | 0.00 | 0.00 | 0.00 | 75 | 1007.8 |
| 20260505024038 | 22 | 185 | 1.6 | 4.8 | 0.00 | 0.00 | 0.00 | 75 | 1008.0 |
| 20260505023540 | 22 | 216 | 1.6 | 4.8 | 0.00 | 0.00 | 0.00 | 75 | 1007.8 |
| 20260505023046 | 23 | 189 | 1.6 | 4.8 | 0.00 | 0.00 | 0.00 | 75 | 1007.8 |
| 20260505022538 | 23 | 195 | 1.6 | 4.8 | 0.00 | 0.00 | 0.00 | 75 | 1007.7 |
| 20260505022038 | 23 | 0 | 0.0 | 4.8 | 0.00 | 0.00 | 0.00 | 75 | 1007.7 |
| 20260505021552 | 23 | 135 | 1.6 | 4.8 | 0.00 | 0.00 | 0.00 | 75 | 1007.8 |
| 20260505021040 | 23 | 193 | 0.0 | 3.2 | 0.00 | 0.00 | 0.00 | 75 | 1007.8 |
| 20260505020541 | 23 | 212 | 0.0 | 4.8 | 0.00 | 0.00 | 0.00 | 75 | 1007.8 |
| 20260505020051 | 23 | 117 | 0.0 | 4.8 | 0.00 | 0.00 | 0.00 | 74 | 1007.8 |
| 20260505015541 | 23 | 160 | 0.0 | 3.2 | 0.00 | 0.00 | 0.00 | 74 | 1007.6 |
| 20260505015040 | 23 | 0 | 0.0 | 3.2 | 0.00 | 0.00 | 0.00 | 74 | 1007.6 |
| 20260505014603 | 23 | 159 | 0.0 | 3.2 | 0.00 | 0.00 | 0.00 | 74 | 1007.9 |
| 20260505014038 | 23 | 197 | 0.0 | 3.2 | 0.00 | 0.00 | 0.00 | 73 | 1007.7 |
| 20260505013539 | 23 | 0 | 1.6 | 3.2 | 0.00 | 0.00 | 0.00 | 73 | 1007.7 |
| 20260505013055 | 23 | 207 | 0.0 | 3.2 | 0.00 | 0.00 | 0.00 | 73 | 1007.8 |
| 20260505012537 | 23 | 130 | 0.0 | 3.2 | 0.00 | 0.00 | 0.00 | 72 | 1007.8 |
| 20260505012040 | 23 | 0 | 0.0 | 4.8 | 0.00 | 0.00 | 0.00 | 72 | 1007.8 |
| 20260505011556 | 23 | 191 | 0.0 | 4.8 | 0.00 | 0.00 | 0.00 | 72 | 1007.8 |
| 20260505011042 | 23 | 179 | 1.6 | 4.8 | 0.00 | 0.00 | 0.00 | 72 | 1007.8 |
| 20260505010539 | 23 | 197 | 1.6 | 3.2 | 0.00 | 0.00 | 0.00 | 72 | 1007.8 |
| 20260505005542 | 24 | 166 | 0.0 | 4.8 | 0.00 | 0.00 | 0.00 | 71 | 1007.9 |
| 20260505005038 | 24 | 186 | 0.0 | 4.8 | 0.00 | 0.00 | 0.00 | 70 | 1007.9 |
| 20260505004553 | 24 | 213 | 0.0 | 4.8 | 0.00 | 0.00 | 0.00 | 70 | 1007.9 |
| 20260505004039 | 24 | 188 | 1.6 | 6.4 | 0.00 | 0.00 | 0.00 | 70 | 1008.0 |
| 20260505003539 | 24 | 192 | 1.6 | 6.4 | 0.00 | 0.00 | 0.00 | 69 | 1007.9 |
| 20260505003057 | 25 | 206 | 1.6 | 8.0 | 0.00 | 0.00 | 0.00 | 69 | 1008.0 |
| 20260505002540 | 25 | 188 | 3.2 | 8.0 | 0.00 | 0.00 | 0.00 | 69 | 1008.1 |
| 20260505002037 | 25 | 195 | 1.6 | 8.0 | 0.00 | 0.00 | 0.00 | 68 | 1008.1 |
| 20260505001552 | 25 | 245 | 1.6 | 4.8 | 0.00 | 0.00 | 0.00 | 68 | 1008.1 |
| 20260505001039 | 25 | 190 | 1.6 | 4.8 | 0.00 | 0.00 | 0.00 | 68 | 1008.2 |
| 20260505000539 | 25 | 195 | 1.6 | 6.4 | 0.00 | 0.00 | 0.00 | 68 | 1008.2 |
| 20260505000058 | 25 | 184 | 1.6 | 6.4 | 0.00 | 0.00 | 0.00 | 68 | 1008.2 |
| 20260504235543 | 25 | 197 | 1.6 | 6.4 | 0.00 | 0.00 | 0.00 | 67 | 1008.2 |
| 20260504235038 | 25 | 198 | 0.0 | 6.4 | 0.00 | 0.00 | 0.00 | 68 | 1008.3 |
| 20260504234553 | 25 | 0 | 0.0 | 6.4 | 0.00 | 0.00 | 0.00 | 68 | 1008.4 |
| 20260504234040 | 25 | 232 | 1.6 | 6.4 | 0.00 | 0.00 | 0.00 | 68 | 1008.4 |
| 20260504233540 | 25 | 195 | 1.6 | 8.0 | 0.00 | 0.00 | 0.00 | 67 | 1008.5 |
| 20260504233049 | 25 | 201 | 1.6 | 8.0 | 0.00 | 0.00 | 0.00 | 67 | 1008.4 |
| 20260504232539 | 25 | 157 | 3.2 | 8.0 | 0.00 | 0.00 | 0.00 | 66 | 1008.4 |
| 20260504232039 | 25 | 200 | 1.6 | 8.0 | 0.00 | 0.00 | 0.00 | 67 | 1008.4 |
| 20260504231548 | 25 | 153 | 3.2 | 8.0 | 0.00 | 0.00 | 0.00 | 66 | 1008.3 |
| 20260504231039 | 25 | 215 | 3.2 | 8.0 | 0.00 | 0.00 | 0.00 | 66 | 1008.5 |
| 20260504230540 | 25 | 208 | 3.2 | 8.0 | 0.00 | 0.00 | 0.00 | 65 | 1008.6 |
| 20260504230047 | 25 | 160 | 1.6 | 8.0 | 0.00 | 0.00 | 0.00 | 65 | 1008.7 |
| 20260504225539 | 25 | 180 | 3.2 | 8.0 | 0.00 | 0.00 | 0.00 | 66 | 1008.8 |
| 20260504225039 | 25 | 193 | 3.2 | 8.0 | 0.00 | 0.00 | 0.00 | 65 | 1008.7 |
| 20260504224552 | 25 | 122 | 1.6 | 8.0 | 0.00 | 0.00 | 0.00 | 66 | 1008.8 |
| 20260504224039 | 25 | 200 | 1.6 | 9.7 | 0.00 | 0.00 | 0.00 | 65 | 1008.9 |
| 20260504223538 | 26 | 174 | 4.8 | 9.7 | 0.00 | 0.00 | 0.00 | 65 | 1008.9 |
| 20260504223104 | 26 | 243 | 3.2 | 9.7 | 0.00 | 0.00 | 0.00 | 64 | 1008.9 |
| 20260504222540 | 26 | 211 | 3.2 | 8.0 | 0.00 | 0.00 | 0.00 | 64 | 1008.9 |
| 20260504222039 | 26 | 218 | 3.2 | 9.7 | 0.00 | 0.00 | 0.00 | 64 | 1008.8 |
| 20260504221551 | 26 | 216 | 3.2 | 9.7 | 0.00 | 0.00 | 0.00 | 64 | 1008.8 |
| 20260504221041 | 26 | 139 | 3.2 | 9.7 | 0.00 | 0.00 | 0.00 | 65 | 1008.9 |
| 20260504220541 | 26 | 158 | 1.6 | 8.0 | 0.00 | 0.00 | 0.00 | 64 | 1009.1 |
| 20260504220053 | 26 | 204 | 3.2 | 8.0 | 0.00 | 0.00 | 0.00 | 64 | 1009.1 |
| 20260504215545 | 26 | 124 | 3.2 | 8.0 | 0.00 | 0.00 | 0.00 | 64 | 1009.1 |
| 20260504215041 | 26 | 193 | 1.6 | 8.0 | 0.00 | 0.00 | 0.00 | 64 | 1009.2 |
| 20260504214553 | 26 | 206 | 3.2 | 11.3 | 0.00 | 0.00 | 0.00 | 63 | 1009.3 |
| 20260504214041 | 26 | 233 | 3.2 | 11.3 | 0.00 | 0.00 | 0.00 | 64 | 1009.4 |
| 20260504213539 | 26 | 217 | 3.2 | 8.0 | 0.00 | 0.00 | 0.00 | 64 | 1009.4 |
| 20260504213050 | 26 | 205 | 3.2 | 11.3 | 0.00 | 0.00 | 0.00 | 63 | 1009.6 |
| 20260504212540 | 26 | 242 | 4.8 | 11.3 | 0.00 | 0.00 | 0.00 | 63 | 1009.6 |
| 20260504212039 | 26 | 109 | 3.2 | 9.7 | 0.00 | 0.00 | 0.00 | 63 | 1009.6 |
| 20260504211634 | 26 | 156 | 4.8 | 9.7 | 0.00 | 0.00 | 0.00 | 63 | 1009.6 |
| 20260504211039 | 26 | 133 | 1.6 | 12.9 | 0.00 | 0.00 | 0.00 | 63 | 1009.7 |
| 20260504210538 | 26 | 205 | 3.2 | 12.9 | 0.00 | 0.00 | 0.00 | 64 | 1009.8 |
| 20260504210052 | 26 | 175 | 4.8 | 9.7 | 0.00 | 0.00 | 0.00 | 63 | 1009.9 |
| 20260504205539 | 26 | 197 | 1.6 | 8.0 | 0.00 | 0.00 | 0.00 | 63 | 1010.1 |
| 20260504205039 | 26 | 186 | 3.2 | 8.0 | 0.00 | 0.00 | 0.00 | 63 | 1010.0 |
| 20260504204547 | 26 | 211 | 3.2 | 11.3 | 0.00 | 0.00 | 0.00 | 63 | 1010.1 |
| 20260504204039 | 26 | 179 | 3.2 | 11.3 | 0.00 | 0.00 | 0.00 | 62 | 1010.2 |
| 20260504203539 | 26 | 182 | 3.2 | 11.3 | 0.00 | 0.00 | 0.00 | 62 | 1010.5 |
| 20260504203102 | 26 | 172 | 1.6 | 6.4 | 0.00 | 0.00 | 0.00 | 63 | 1010.7 |
| 20260504202538 | 26 | 172 | 3.2 | 8.0 | 0.00 | 0.00 | 0.00 | 63 | 1010.9 |
| 20260504202038 | 26 | 208 | 3.2 | 8.0 | 0.00 | 0.00 | 0.00 | 63 | 1011.0 |
| 20260504201555 | 26 | 204 | 3.2 | 11.3 | 0.00 | 0.00 | 0.00 | 63 | 1011.0 |
| 20260504201038 | 26 | 254 | 3.2 | 11.3 | 0.00 | 0.00 | 0.00 | 63 | 1011.1 |
| 20260504200539 | 26 | 195 | 1.6 | 11.3 | 0.00 | 0.00 | 0.00 | 63 | 1011.2 |
| 20260504200052 | 26 | 199 | 4.8 | 12.9 | 0.00 | 0.00 | 0.00 | 64 | 1011.2 |
| 20260504195539 | 26 | 200 | 4.8 | 12.9 | 0.00 | 0.00 | 0.00 | 63 | 1011.4 |
| 20260504195037 | 26 | 224 | 4.8 | 12.9 | 0.00 | 0.00 | 0.00 | 62 | 1011.3 |
| 20260504194554 | 26 | 146 | 3.2 | 6.4 | 0.00 | 0.00 | 0.00 | 62 | 1011.4 |
| 20260504194037 | 26 | 146 | 1.6 | 11.3 | 0.00 | 0.00 | 0.00 | 64 | 1011.5 |
| 20260504193540 | 26 | 216 | 4.8 | 11.3 | 0.00 | 0.00 | 0.00 | 62 | 1011.6 |
| 20260504193049 | 26 | 207 | 4.8 | 11.3 | 0.00 | 0.00 | 0.00 | 61 | 1011.6 |
| 20260504192538 | 26 | 192 | 3.2 | 8.0 | 0.00 | 0.00 | 0.00 | 62 | 1011.7 |
| 20260504192038 | 26 | 185 | 4.8 | 8.0 | 0.00 | 0.00 | 0.00 | 61 | 1011.8 |
| 20260504191609 | 26 | 207 | 1.6 | 8.0 | 0.00 | 0.00 | 0.00 | 62 | 1011.7 |
| 20260504191039 | 25 | 159 | 3.2 | 8.0 | 0.00 | 0.00 | 0.00 | 61 | 1011.9 |
| 20260504190538 | 25 | 150 | 3.2 | 9.7 | 0.00 | 0.00 | 0.00 | 62 | 1012.0 |
| 20260504190105 | 25 | 188 | 3.2 | 9.7 | 0.00 | 0.00 | 0.00 | 62 | 1012.1 |
| 20260504185539 | 25 | 229 | 4.8 | 9.7 | 0.00 | 0.00 | 0.00 | 61 | 1012.1 |
| 20260504185038 | 25 | 139 | 4.8 | 9.7 | 0.00 | 0.00 | 0.00 | 61 | 1012.1 |
| 20260504184552 | 25 | 230 | 4.8 | 11.3 | 0.00 | 0.00 | 0.00 | 60 | 1012.3 |
| 20260504184040 | 25 | 151 | 4.8 | 11.3 | 0.00 | 0.00 | 0.00 | 60 | 1012.3 |
| 20260504183542 | 25 | 208 | 1.6 | 11.3 | 0.00 | 0.00 | 0.00 | 61 | 1012.3 |
| 20260504183048 | 25 | 252 | 3.2 | 11.3 | 0.00 | 0.00 | 0.00 | 60 | 1012.5 |
| 20260504182542 | 25 | 176 | 3.2 | 9.7 | 0.00 | 0.00 | 0.00 | 60 | 1012.7 |
| 20260504182039 | 25 | 176 | 3.2 | 9.7 | 0.00 | 0.00 | 0.00 | 60 | 1012.8 |